Time,TemperatureF,DewpointF,PressureIn,WindDirection,WindDirectionDegrees,WindSpeedMPH,WindSpeedGustMPH,Humidity,HourlyPrecipIn,Conditions,Clouds,dailyrainin,SoftwareType,DateUTC
2013-02-12 00:22:00,40.8,37.8,30.15,WNW,292,0.0,-999.0,89,-99.99,,,0.00,Acu-Link.com,2013-02-12 08:22:00,
2013-02-12 00:37:00,39.9,37.5,30.16,NE,45,2.2,-999.0,91,-99.99,,,0.00,Acu-Link.com,2013-02-12 08:37:00,
2013-02-12 00:52:00,39.9,37.2,30.16,ENE,67,1.1,-999.0,90,-99.99,,,0.00,Acu-Link.com,2013-02-12 08:52:00,
2013-02-12 01:18:00,40.1,37.7,30.16,North,0,1.7,-999.0,91,-99.99,,,0.00,Acu-Link.com,2013-02-12 09:18:00,
2013-02-12 01:34:00,39.6,37.5,30.17,NE,45,0.0,-999.0,92,-99.99,,,0.00,Acu-Link.com,2013-02-12 09:34:00,
2013-02-12 01:49:00,39.6,37.5,30.17,East,90,0.0,-999.0,92,-99.99,,,0.00,Acu-Link.com,2013-02-12 09:49:00,
2013-02-12 02:04:00,40.3,37.9,30.17,SE,135,2.2,-999.0,91,-99.99,,,0.00,Acu-Link.com,2013-02-12 10:04:00,
2013-02-12 02:19:00,39.9,37.5,30.18,NNE,22,2.2,-999.0,91,-99.99,,,0.00,Acu-Link.com,2013-02-12 10:19:00,
2013-02-12 02:34:00,39.7,37.0,30.18,ENE,67,0.0,-999.0,90,-99.99,,,0.00,Acu-Link.com,2013-02-12 10:34:00,
2013-02-12 02:50:00,39.6,36.9,30.18,WNW,292,1.1,-999.0,90,-99.99,,,0.00,Acu-Link.com,2013-02-12 10:50:00,
2013-02-12 03:05:00,39.6,36.9,30.18,South,180,1.1,-999.0,90,-99.99,,,0.00,Acu-Link.com,2013-02-12 11:05:00,
2013-02-12 03:20:00,38.3,35.9,30.18,WNW,292,2.7,-999.0,91,-99.99,,,0.00,Acu-Link.com,2013-02-12 11:20:00,
2013-02-12 03:35:00,37.6,36.0,30.18,WSW,247,3.2,-999.0,94,-99.99,,,0.00,Acu-Link.com,2013-02-12 11:35:00,
2013-02-12 03:50:00,38.1,36.5,30.19,NNW,337,0.0,-999.0,94,-99.99,,,0.00,Acu-Link.com,2013-02-12 11:50:00,
2013-02-12 04:06:00,37.8,36.2,30.19,NE,45,1.1,-999.0,94,-99.99,,,0.00,Acu-Link.com,2013-02-12 12:06:00,
2013-02-12 04:21:00,38.8,37.0,30.19,ENE,67,1.7,-999.0,93,-99.99,,,0.00,Acu-Link.com,2013-02-12 12:21:00,
2013-02-12 04:36:00,39.0,37.7,30.19,ESE,112,0.0,-999.0,95,-99.99,,,0.00,Acu-Link.com,2013-02-12 12:36:00,
2013-02-12 04:51:00,39.0,37.2,30.19,ENE,67,2.7,-999.0,93,-99.99,,,0.00,Acu-Link.com,2013-02-12 12:51:00,
2013-02-12 05:06:00,37.0,35.4,30.19,NNW,337,2.7,-999.0,94,-99.99,,,0.00,Acu-Link.com,2013-02-12 13:06:00,
2013-02-12 05:21:00,37.2,36.2,30.20,ESE,112,2.7,-999.0,96,-99.99,,,0.00,Acu-Link.com,2013-02-12 13:21:00,
2013-02-12 05:37:00,38.5,36.7,30.20,ENE,67,2.2,-999.0,93,-99.99,,,0.00,Acu-Link.com,2013-02-12 13:37:00,
2013-02-12 05:52:00,38.5,35.8,30.22,NE,45,2.7,-999.0,90,-99.99,,,0.00,Acu-Link.com,2013-02-12 13:52:00,
2013-02-12 06:07:00,38.7,36.3,30.22,ESE,112,3.7,-999.0,91,-99.99,,,0.00,Acu-Link.com,2013-02-12 14:07:00,
2013-02-12 06:22:00,36.0,35.0,30.23,WNW,292,3.2,-999.0,96,-99.99,,,0.00,Acu-Link.com,2013-02-12 14:22:00,
2013-02-12 06:37:00,36.3,35.5,30.22,NE,45,1.1,-999.0,97,-99.99,,,0.00,Acu-Link.com,2013-02-12 14:37:00,
2013-02-12 06:52:00,38.5,36.7,30.23,WNW,292,2.7,-999.0,93,-99.99,,,0.00,Acu-Link.com,2013-02-12 14:52:00,
2013-02-12 07:08:00,39.2,37.3,30.24,WSW,247,0.0,-999.0,93,-99.99,,,0.00,Acu-Link.com,2013-02-12 15:08:00,
2013-02-12 07:23:00,39.7,37.8,30.25,ENE,67,0.0,-999.0,93,-99.99,,,0.00,Acu-Link.com,2013-02-12 15:23:00,
2013-02-12 07:38:00,41.4,38.4,30.26,East,90,1.7,-999.0,89,-99.99,,,0.00,Acu-Link.com,2013-02-12 15:38:00,
2013-02-12 07:53:00,40.5,38.1,30.26,WNW,292,2.7,-999.0,91,-99.99,,,0.00,Acu-Link.com,2013-02-12 15:53:00,
2013-02-12 08:09:00,46.9,42.9,30.26,NNE,22,1.7,-999.0,86,-99.99,,,0.00,Acu-Link.com,2013-02-12 16:09:00,
2013-02-12 08:24:00,48.4,42.8,30.27,North,0,0.0,-999.0,81,-99.99,,,0.00,Acu-Link.com,2013-02-12 16:24:00,
2013-02-12 08:39:00,49.6,45.3,30.27,NE,45,0.0,-999.0,85,-99.99,,,0.00,Acu-Link.com,2013-02-12 16:39:00,
2013-02-12 08:54:00,52.0,46.0,30.28,ENE,67,0.0,-999.0,80,-99.99,,,0.00,Acu-Link.com,2013-02-12 16:54:00,
2013-02-12 09:09:00,53.4,46.7,30.28,WSW,247,0.0,-999.0,78,-99.99,,,0.00,Acu-Link.com,2013-02-12 17:09:00,
2013-02-12 09:25:00,53.1,46.1,30.29,WSW,247,0.0,-999.0,77,-99.99,,,0.00,Acu-Link.com,2013-02-12 17:25:00,
2013-02-12 09:40:00,55.4,46.5,30.29,NE,45,1.7,-999.0,72,-99.99,,,0.00,Acu-Link.com,2013-02-12 17:40:00,
2013-02-12 09:55:00,52.3,43.5,30.29,WNW,292,2.7,-999.0,72,-99.99,,,0.00,Acu-Link.com,2013-02-12 17:55:00,
2013-02-12 10:10:00,50.7,42.4,30.28,West,270,2.7,-999.0,73,-99.99,,,0.00,Acu-Link.com,2013-02-12 18:10:00,
2013-02-12 10:25:00,53.4,44.2,30.28,West,270,2.7,-999.0,71,-99.99,,,0.00,Acu-Link.com,2013-02-12 18:25:00,
2013-02-12 10:41:00,53.4,44.6,30.28,West,270,2.7,-999.0,72,-99.99,,,0.00,Acu-Link.com,2013-02-12 18:41:00,
2013-02-12 10:56:00,53.6,45.2,30.28,West,270,4.2,-999.0,73,-99.99,,,0.00,Acu-Link.com,2013-02-12 18:56:00,
2013-02-12 11:11:00,52.9,44.5,30.29,WNW,292,4.2,-999.0,73,-99.99,,,0.00,Acu-Link.com,2013-02-12 19:11:00,
2013-02-12 11:26:00,54.7,45.9,30.28,West,270,2.2,-999.0,72,-99.99,,,0.00,Acu-Link.com,2013-02-12 19:26:00,
2013-02-12 11:41:00,53.8,45.0,30.28,NW,315,3.2,-999.0,72,-99.99,,,0.00,Acu-Link.com,2013-02-12 19:41:00,
2013-02-12 11:57:00,55.6,45.2,30.27,West,270,3.7,-999.0,68,-99.99,,,0.00,Acu-Link.com,2013-02-12 19:57:00,
2013-02-12 12:12:00,55.4,45.8,30.27,NW,315,3.2,-999.0,70,-99.99,,,0.00,Acu-Link.com,2013-02-12 20:12:00,
2013-02-12 12:27:00,55.6,45.6,30.27,NW,315,4.7,-999.0,69,-99.99,,,0.00,Acu-Link.com,2013-02-12 20:27:00,
2013-02-12 12:42:00,55.8,45.4,30.26,WNW,292,2.2,-999.0,68,-99.99,,,0.00,Acu-Link.com,2013-02-12 20:42:00,
2013-02-12 12:58:00,57.2,45.1,30.26,West,270,3.2,-999.0,64,-99.99,,,0.00,Acu-Link.com,2013-02-12 20:58:00,
2013-02-12 13:13:00,57.6,46.3,30.25,WNW,292,3.2,-999.0,66,-99.99,,,0.00,Acu-Link.com,2013-02-12 21:13:00,
2013-02-12 13:28:00,56.5,45.3,30.25,West,270,3.7,-999.0,66,-99.99,,,0.00,Acu-Link.com,2013-02-12 21:28:00,
2013-02-12 13:43:00,56.3,44.7,30.24,WNW,292,5.8,-999.0,65,-99.99,,,0.00,Acu-Link.com,2013-02-12 21:43:00,
2013-02-12 13:59:00,57.0,43.3,30.24,WNW,292,2.7,-999.0,60,-99.99,,,0.00,Acu-Link.com,2013-02-12 21:59:00,
2013-02-12 14:14:00,56.8,44.3,30.24,West,270,3.7,-999.0,63,-99.99,,,0.00,Acu-Link.com,2013-02-12 22:14:00,
2013-02-12 14:29:00,57.7,44.3,30.24,West,270,3.7,-999.0,61,-99.99,,,0.00,Acu-Link.com,2013-02-12 22:29:00,
2013-02-12 14:44:00,58.3,45.3,30.24,West,270,1.7,-999.0,62,-99.99,,,0.00,Acu-Link.com,2013-02-12 22:44:00,
2013-02-12 15:00:00,58.6,44.3,30.24,WNW,292,4.2,-999.0,59,-99.99,,,0.00,Acu-Link.com,2013-02-12 23:00:00,
2013-02-12 15:15:00,56.7,42.5,30.24,West,270,3.2,-999.0,59,-99.99,,,0.00,Acu-Link.com,2013-02-12 23:15:00,
2013-02-12 15:30:00,57.6,43.4,30.23,NNE,22,1.1,-999.0,59,-99.99,,,0.00,Acu-Link.com,2013-02-12 23:30:00,
2013-02-12 15:45:00,55.6,42.4,30.23,NW,315,3.2,-999.0,61,-99.99,,,0.00,Acu-Link.com,2013-02-12 23:45:00,
2013-02-12 16:01:00,57.4,44.1,30.23,WNW,292,2.7,-999.0,61,-99.99,,,0.00,Acu-Link.com,2013-02-13 00:01:00,
2013-02-12 16:16:00,56.5,42.3,30.22,WNW,292,2.7,-999.0,59,-99.99,,,0.00,Acu-Link.com,2013-02-13 00:16:00,
2013-02-12 16:31:00,56.7,43.8,30.23,WNW,292,3.7,-999.0,62,-99.99,,,0.00,Acu-Link.com,2013-02-13 00:31:00,
2013-02-12 16:46:00,55.9,43.1,30.23,West,270,2.7,-999.0,62,-99.99,,,0.00,Acu-Link.com,2013-02-13 00:46:00,
2013-02-12 17:02:00,55.4,43.0,30.23,WNW,292,3.2,-999.0,63,-99.99,,,0.00,Acu-Link.com,2013-02-13 01:02:00,
2013-02-12 17:17:00,54.5,43.0,30.23,WNW,292,1.7,-999.0,65,-99.99,,,0.00,Acu-Link.com,2013-02-13 01:17:00,
2013-02-12 17:32:00,53.2,42.5,30.23,West,270,0.0,-999.0,67,-99.99,,,0.00,Acu-Link.com,2013-02-13 01:32:00,
2013-02-12 17:47:00,52.0,41.8,30.23,West,270,0.0,-999.0,68,-99.99,,,0.00,Acu-Link.com,2013-02-13 01:47:00,
2013-02-12 18:03:00,49.8,40.8,30.23,SSE,157,1.7,-999.0,71,-99.99,,,0.00,Acu-Link.com,2013-02-13 02:03:00,
2013-02-12 18:18:00,48.4,40.5,30.22,West,270,1.7,-999.0,74,-99.99,,,0.00,Acu-Link.com,2013-02-13 02:18:00,
2013-02-12 18:33:00,48.4,40.5,30.22,WNW,292,0.0,-999.0,74,-99.99,,,0.00,Acu-Link.com,2013-02-13 02:33:00,
2013-02-12 18:48:00,47.3,40.5,30.22,ESE,112,0.0,-999.0,77,-99.99,,,0.00,Acu-Link.com,2013-02-13 02:48:00,
2013-02-12 19:03:00,46.8,40.3,30.22,ESE,112,0.0,-999.0,78,-99.99,,,0.00,Acu-Link.com,2013-02-13 03:03:00,
2013-02-12 19:19:00,46.4,39.9,30.22,ESE,112,0.0,-999.0,78,-99.99,,,0.00,Acu-Link.com,2013-02-13 03:19:00,
2013-02-12 19:34:00,46.2,40.1,30.22,SW,225,1.7,-999.0,79,-99.99,,,0.00,Acu-Link.com,2013-02-13 03:34:00,
2013-02-12 19:49:00,46.6,39.8,30.22,NW,315,0.0,-999.0,77,-99.99,,,0.00,Acu-Link.com,2013-02-13 03:49:00,
2013-02-12 20:04:00,46.2,39.7,30.22,NNW,337,0.0,-999.0,78,-99.99,,,0.00,Acu-Link.com,2013-02-13 04:04:00,
2013-02-12 20:19:00,46.4,39.6,30.21,North,0,0.0,-999.0,77,-99.99,,,0.00,Acu-Link.com,2013-02-13 04:19:00,
2013-02-12 20:35:00,45.5,39.4,30.22,NNW,337,0.0,-999.0,79,-99.99,,,0.00,Acu-Link.com,2013-02-13 04:35:00,
2013-02-12 20:50:00,45.5,40.3,30.22,NW,315,0.0,-999.0,82,-99.99,,,0.00,Acu-Link.com,2013-02-13 04:50:00,
2013-02-12 21:05:00,45.5,40.0,30.23,West,270,0.0,-999.0,81,-99.99,,,0.00,Acu-Link.com,2013-02-13 05:05:00,
2013-02-12 21:20:00,44.8,40.3,30.22,NW,315,0.0,-999.0,84,-99.99,,,0.00,Acu-Link.com,2013-02-13 05:20:00,
2013-02-12 21:35:00,44.6,40.1,30.22,ESE,112,0.0,-999.0,84,-99.99,,,0.00,Acu-Link.com,2013-02-13 05:35:00,
2013-02-12 21:50:00,44.8,40.0,30.22,WSW,247,0.0,-999.0,83,-99.99,,,0.00,Acu-Link.com,2013-02-13 05:50:00,
2013-02-12 22:06:00,44.4,39.6,30.23,ENE,67,1.1,-999.0,83,-99.99,,,0.00,Acu-Link.com,2013-02-13 06:06:00,
2013-02-12 22:21:00,43.9,39.4,30.23,ENE,67,1.7,-999.0,84,-99.99,,,0.00,Acu-Link.com,2013-02-13 06:21:00,
2013-02-12 22:36:00,44.1,39.6,30.23,NNE,22,0.0,-999.0,84,-99.99,,,0.00,Acu-Link.com,2013-02-13 06:36:00,
2013-02-12 22:52:00,43.7,39.5,30.24,NNE,22,0.0,-999.0,85,-99.99,,,0.00,Acu-Link.com,2013-02-13 06:52:00,
2013-02-12 23:07:00,42.8,39.2,30.24,NNE,22,0.0,-999.0,87,-99.99,,,0.00,Acu-Link.com,2013-02-13 07:07:00,
2013-02-12 23:22:00,43.0,39.1,30.24,NE,45,2.2,-999.0,86,-99.99,,,0.00,Acu-Link.com,2013-02-13 07:22:00,
2013-02-12 23:37:00,43.2,39.0,30.24,WNW,292,0.0,-999.0,85,-99.99,,,0.00,Acu-Link.com,2013-02-13 07:37:00,